QPF
0.04 0.04 0.03 0.06 0.06 0.05 0.05 0.06 0.06 0.06 0.06 0.05 0.05 0.06 0.07 0.10 0.11 0.11 0.08 0.08 0.08 0.08 0.08 0.08 0.08 0.10 0.09 0.09 0.08 0.07 0.09 0.10 0.08 0.06 0.05 0.05 0.06 0.05 0.05 0.05 0.05 0.05 0.04
0.03 0.04 0.05 0.08 0.07 0.05 0.05 0.04 0.04 0.04 0.05 0.04 0.05 0.04 0.05 0.06 0.07 0.08 0.09 0.10 0.08 0.07 0.07 0.09 0.08 0.11 0.11 0.10 0.11 0.10 0.09 0.10 0.09 0.07 0.05 0.05 0.07 0.08 0.08 0.09 0.07 0.06 0.06
0.02 0.03 0.05 0.09 0.09 0.07 0.06 0.06 0.05 0.04 0.04 0.03 0.05 0.05 0.06 0.05 0.05 0.05 0.07 0.08 0.08 0.08 0.08 0.07 0.07 0.10 0.11 0.11 0.13 0.13 0.13 0.13 0.14 0.11 0.07 0.07 0.07 0.07 0.09 0.09 0.08 0.09 0.09
0.03 0.04 0.06 0.09 0.08 0.07 0.08 0.09 0.07 0.05 0.04 0.03 0.04 0.04 0.04 0.04 0.04 0.05 0.07 0.09 0.10 0.11 0.12 0.13 0.12 0.12 0.11 0.12 0.13 0.13 0.14 0.15 0.16 0.16 0.14 0.12 0.12 0.11 0.12 0.11 0.10 0.11 0.10
0.02 0.05 0.09 0.09 0.08 0.06 0.05 0.06 0.04 0.04 0.04 0.04 0.04 0.04 0.05 0.05 0.06 0.07 0.10 0.12 0.14 0.12 0.12 0.12 0.12 0.12 0.13 0.14 0.14 0.14 0.15 0.15 0.14 0.15 0.16 0.17 0.16 0.14 0.15 0.16 0.17 0.17 0.16
0.02 0.03 0.06 0.06 0.04 0.03 0.03 0.05 0.04 0.03 0.04 0.04 0.05 0.07 0.07 0.06 0.09 0.10 0.11 0.12 0.12 0.11 0.11 0.12 0.11 0.10 0.10 0.10 0.10 0.11 0.13 0.15 0.17 0.20 0.22 0.23 0.22 0.22 0.22 0.22 0.22 0.21 0.20
0.01 0.01 0.01 0.02 0.02 0.03 0.03 0.04 0.05 0.04 0.05 0.05 0.05 0.06 0.07 0.07 0.06 0.05 0.05 0.05 0.05 0.06 0.07 0.07 0.06 0.05 0.05 0.05 0.07 0.10 0.13 0.16 0.18 0.20 0.23 0.25 0.24 0.23 0.22 0.22 0.22 0.22 0.21
0.00 0.01 0.01 0.02 0.04 0.04 0.05 0.05 0.06 0.08 0.07 0.06 0.06 0.06 0.06 0.05 0.05 0.04 0.05 0.05 0.05 0.05 0.05 0.05 0.05 0.05 0.05 0.04 0.05 0.06 0.09 0.12 0.15 0.15 0.16 0.15 0.12 0.10 0.10 0.11 0.12 0.11 0.10
0.01 0.01 0.01 0.02 0.02 0.03 0.05 0.05 0.05 0.06 0.06 0.05 0.06 0.07 0.07 0.07 0.07 0.06 0.06 0.06 0.06 0.06 0.06 0.06 0.06 0.05 0.05 0.04 0.04 0.05 0.06 0.07 0.08 0.07 0.06 0.07 0.07 0.07 0.06 0.06 0.07 0.06 0.06
0.01 0.01 0.01 0.02 0.01 0.02 0.02 0.02 0.03 0.03 0.04 0.08 0.10 0.09 0.06 0.06 0.08 0.08 0.08 0.07 0.07 0.07 0.07 0.06 0.07 0.06 0.06 0.06 0.04 0.05 0.06 0.06 0.05 0.04 0.05 0.06 0.06 0.07 0.08 0.06 0.04 0.04 0.04
0.01 0.01 0.01 0.01 0.01 0.02 0.02 0.02 0.02 0.02 0.06 0.10 0.11 0.09 0.07 0.06 0.07 0.08 0.09 0.08 0.07 0.07 0.08 0.08 0.08 0.08 0.08 0.08 0.06 0.05 0.05 0.05 0.05 0.06 0.07 0.07 0.07 0.06 0.04 0.03 0.03 0.03 0.04
0.01 0.00 0.01 0.01 0.01 0.01 0.02 0.02 0.01 0.01 0.02 0.03 0.04 0.05 0.06 0.07 0.09 0.09 0.09 0.08 0.08 0.08 0.08 0.08 0.09 0.09 0.08 0.07 0.07 0.07 0.06 0.05 0.05 0.06 0.05 0.04 0.03 0.02 0.02 0.02 0.02 0.02 0.03
0.01 0.02 0.02 0.01 0.02 0.02 0.02 0.02 0.01 0.01 0.02 0.02 0.02 0.03 0.04 0.05 0.06 0.09 0.09 0.10 0.09 0.08 0.08 0.09 0.08 0.08 0.07 0.05 0.04 0.03 0.03 0.03 0.03 0.04 0.03 0.02 0.01 0.01 0.02 0.02 0.03 0.03 0.03
0.02 0.03 0.03 0.02 0.02 0.03 0.03 0.02 0.01 0.01 0.02 0.02 0.02 0.02 0.02 0.02 0.02 0.04 0.05 0.05 0.05 0.05 0.05 0.05 0.05 0.04 0.04 0.03 0.02 0.02 0.02 0.02 0.02 0.02 0.02 0.01 0.01 0.00 0.00 0.01 0.02 0.02 0.03
0.02 0.03 0.03 0.02 0.02 0.02 0.03 0.03 0.02 0.02 0.02 0.03 0.03 0.03 0.02 0.02 0.02 0.03 0.02 0.02 0.02 0.03 0.02 0.02 0.02 0.02 0.01 0.01 0.01 0.02 0.02 0.02 0.01 0.01 0.01 0.01 0.01 0.01 0.00 0.00 0.00 0.01 0.01
0.02 0.02 0.02 0.02 0.02 0.03 0.02 0.04 0.04 0.04 0.04 0.04 0.03 0.02 0.02 0.02 0.03 0.03 0.03 0.03 0.03 0.03 0.02 0.02 0.01 0.01 0.01 0.01 0.02 0.02 0.02 0.02 0.02 0.02 0.01 0.01 0.01 0.01 0.00 0.00 0.00 0.00 0.01
0.01 0.01 0.01 0.01 0.02 0.02 0.01 0.01 0.02 0.03 0.03 0.02 0.02 0.01 0.01 0.01 0.01 0.02 0.02 0.02 0.02 0.02 0.02 0.01 0.01 0.01 0.01 0.02 0.02 0.03 0.02 0.02 0.01 0.01 0.01 0.01 0.01 0.00 0.00 0.01 0.01 0.01 0.00
0.00 0.00 0.01 0.01 0.01 0.01 0.01 0.01 0.01 0.02 0.02 0.02 0.02 0.01 0.01 0.01 0.01 0.01 0.01 0.01 0.01 0.01 0.01 0.01 0.00 0.00 0.01 0.01 0.01 0.01 0.01 0.01 0.00 0.00 0.00 0.00 0.01 0.01 0.00 0.00 0.00 0.01 0.01
0.00 0.01 0.01 0.01 0.01 0.01 0.01 0.01 0.01 0.01 0.01 0.01 0.01 0.01 0.01 0.01 0.01 0.01 0.00 0.00 0.00 0.00 0.00 0.00 0.00 0.00 0.00 0.00 0.00 0.01 0.01 0.01 0.01 0.01 0.01 0.01 0.01 0.01 0.00 0.00 0.00 0.00 0.00
0.00 0.01 0.01 0.01 0.01 0.01 0.02 0.01 0.01 0.01 0.01 0.01 0.01 0.01 0.01 0.01 0.01 0.01 0.01 0.00 0.00 0.00 0.00 0.00 0.00 0.00 0.00 0.00 0.01 0.01 0.01 0.01 0.01 0.01 0.01 0.01 0.00 0.00 0.00 0.00 0.00 0.00 0.00
0.00 0.01 0.01 0.01 0.01 0.01 0.01 0.02 0.02 0.02 0.02 0.01 0.01 0.01 0.02 0.02 0.01 0.01 0.01 0.01 0.00 0.00 0.00 0.00 0.00 0.00 0.00 0.00 0.01 0.01 0.01 0.01 0.01 0.01 0.00 0.00 0.00 0.00 0.00 0.00 0.00 0.00 0.00
0.00 0.01 0.01 0.01 0.01 0.01 0.01 0.01 0.01 0.02 0.01 0.01 0.01 0.01 0.02 0.02 0.03 0.03 0.03 0.02 0.01 0.01 0.00 0.00 0.00 0.00 0.00 0.00 0.00 0.01 0.01 0.00 0.00 0.00 0.00 0.00 0.00 0.00 0.00 0.00 0.00 0.00 0.00
0.01 0.01 0.01 0.01 0.01 0.03 0.03 0.02 0.01 0.02 0.02 0.01 0.02 0.02 0.01 0.01 0.03 0.05 0.06 0.07 0.06 0.05 0.03 0.02 0.01 0.01 0.01 0.01 0.01 0.01 0.01 0.01 0.00 0.00 0.00 0.00 0.00 0.00 0.00 0.00 0.00 0.00 0.00
0.01 0.02 0.02 0.02 0.02 0.03 0.04 0.04 0.04 0.03 0.02 0.01 0.01 0.02 0.02 0.02 0.03 0.04 0.06 0.08 0.08 0.07 0.06 0.04 0.03 0.03 0.02 0.02 0.02 0.01 0.01 0.00 0.00 0.00 0.00 0.00 0.00 0.00 0.00 0.00 0.00 0.01 0.01
0.03 0.03 0.03 0.03 0.03 0.03 0.04 0.05 0.05 0.04 0.03 0.02 0.01 0.01 0.02 0.03 0.04 0.04 0.04 0.05 0.05 0.05 0.05 0.04 0.03 0.03 0.02 0.01 0.01 0.01 0.01 0.01 0.01 0.01 0.01 0.01 0.01 0.01 0.01 0.01 0.01 0.01 0.02
0.03 0.02 0.02 0.02 0.02 0.03 0.04 0.03 0.03 0.04 0.05 0.04 0.03 0.02 0.02 0.03 0.04 0.04 0.04 0.04 0.04 0.03 0.03 0.02 0.02 0.01 0.01 0.01 0.00 0.00 0.00 0.01 0.01 0.01 0.01 0.01 0.01 0.01 0.01 0.01 0.01 0.01 0.01
MSLP
1012.87 1013.30 1013.70 1014.00 1014.19 1014.25 1014.18 1014.00 1013.76 1013.48 1013.20 1012.95 1012.74 1012.57 1012.43 1012.31 1012.21 1012.11 1012.02 1011.95 1011.93 1011.95 1012.04 1012.19 1012.40 1012.64 1012.89 1013.13 1013.33 1013.49 1013.61 1013.70 1013.80 1013.92 1014.10 1014.35 1014.68 1015.08 1015.54 1016.03 1016.52 1016.99 1017.41
1012.89 1013.33 1013.72 1014.04 1014.26 1014.35 1014.32 1014.19 1013.98 1013.72 1013.45 1013.18 1012.92 1012.67 1012.44 1012.22 1012.00 1011.79 1011.60 1011.44 1011.34 1011.30 1011.33 1011.43 1011.59 1011.78 1011.99 1012.20 1012.38 1012.54 1012.68 1012.82 1013.00 1013.23 1013.54 1013.94 1014.43 1015.00 1015.60 1016.22 1016.81 1017.35 1017.81
1013.06 1013.50 1013.91 1014.24 1014.48 1014.61 1014.62 1014.54 1014.38 1014.16 1013.90 1013.62 1013.33 1013.02 1012.71 1012.39 1012.07 1011.76 1011.48 1011.23 1011.05 1010.94 1010.91 1010.95 1011.04 1011.17 1011.31 1011.45 1011.58 1011.70 1011.83 1011.99 1012.22 1012.53 1012.96 1013.50 1014.14 1014.85 1015.59 1016.33 1017.01 1017.61 1018.11
1013.35 1013.80 1014.21 1014.56 1014.82 1014.98 1015.04 1015.02 1014.91 1014.74 1014.51 1014.23 1013.92 1013.57 1013.20 1012.81 1012.42 1012.03 1011.68 1011.37 1011.13 1010.97 1010.88 1010.85 1010.87 1010.92 1010.97 1011.02 1011.06 1011.12 1011.20 1011.34 1011.59 1011.95 1012.46 1013.10 1013.85 1014.67 1015.52 1016.34 1017.10 1017.74 1018.26
1013.70 1014.16 1014.57 1014.93 1015.20 1015.39 1015.50 1015.53 1015.47 1015.35 1015.16 1014.91 1014.60 1014.25 1013.85 1013.42 1012.99 1012.56 1012.17 1011.84 1011.57 1011.38 1011.25 1011.17 1011.13 1011.09 1011.06 1011.00 1010.95 1010.91 1010.92 1011.01 1011.23 1011.60 1012.13 1012.82 1013.63 1014.52 1015.42 1016.29 1017.07 1017.74 1018.26
1014.06 1014.52 1014.93 1015.28 1015.56 1015.77 1015.91 1015.97 1015.97 1015.91 1015.77 1015.56 1015.28 1014.94 1014.56 1014.14 1013.70 1013.29 1012.90 1012.58 1012.32 1012.13 1011.99 1011.89 1011.79 1011.70 1011.57 1011.43 1011.27 1011.14 1011.06 1011.08 1011.24 1011.58 1012.09 1012.77 1013.58 1014.47 1015.37 1016.23 1017.01 1017.65 1018.16
1014.38 1014.83 1015.22 1015.56 1015.83 1016.04 1016.20 1016.31 1016.35 1016.34 1016.26 1016.10 1015.88 1015.59 1015.24 1014.87 1014.48 1014.10 1013.77 1013.49 1013.27 1013.12 1013.00 1012.90 1012.79 1012.65 1012.47 1012.25 1012.01 1011.79 1011.62 1011.56 1011.66 1011.92 1012.38 1013.00 1013.76 1014.59 1015.45 1016.25 1016.97 1017.56 1018.02
1014.63 1015.07 1015.44 1015.74 1015.99 1016.20 1016.37 1016.50 1016.59 1016.63 1016.60 1016.51 1016.35 1016.13 1015.85 1015.55 1015.23 1014.94 1014.68 1014.47 1014.32 1014.22 1014.15 1014.07 1013.97 1013.83 1013.62 1013.36 1013.07 1012.78 1012.55 1012.42 1012.44 1012.63 1013.00 1013.55 1014.21 1014.96 1015.71 1016.43 1017.05 1017.56 1017.95
1014.82 1015.24 1015.57 1015.85 1016.08 1016.28 1016.46 1016.61 1016.73 1016.81 1016.84 1016.82 1016.73 1016.58 1016.38 1016.16 1015.93 1015.72 1015.55 1015.42 1015.35 1015.32 1015.30 1015.27 1015.20 1015.07 1014.87 1014.60 1014.29 1013.98 1013.72 1013.54 1013.51 1013.63 1013.92 1014.36 1014.92 1015.55 1016.19 1016.79 1017.30 1017.71 1018.01
1014.97 1015.36 1015.68 1015.94 1016.16 1016.35 1016.54 1016.71 1016.86 1016.98 1017.07 1017.10 1017.07 1017.00 1016.87 1016.73 1016.58 1016.45 1016.35 1016.30 1016.30 1016.32 1016.36 1016.37 1016.34 1016.24 1016.06 1015.82 1015.53 1015.23 1014.97 1014.78 1014.71 1014.79 1015.01 1015.37 1015.82 1016.33 1016.85 1017.33 1017.73 1018.04 1018.24
1015.10 1015.48 1015.79 1016.06 1016.28 1016.49 1016.70 1016.89 1017.08 1017.24 1017.37 1017.45 1017.48 1017.45 1017.39 1017.30 1017.21 1017.14 1017.09 1017.09 1017.13 1017.19 1017.26 1017.30 1017.30 1017.24 1017.10 1016.90 1016.65 1016.39 1016.16 1016.00 1015.93 1015.98 1016.16 1016.45 1016.81 1017.22 1017.62 1017.99 1018.28 1018.50 1018.62
1015.25 1015.64 1015.98 1016.27 1016.53 1016.78 1017.02 1017.25 1017.48 1017.68 1017.84 1017.96 1018.02 1018.03 1018.00 1017.95 1017.88 1017.83 1017.80 1017.81 1017.86 1017.92 1018.00 1018.05 1018.07 1018.03 1017.93 1017.78 1017.59 1017.39 1017.21 1017.08 1017.04 1017.09 1017.24 1017.48 1017.78 1018.10 1018.41 1018.69 1018.90 1019.03 1019.09
1015.44 1015.87 1016.26 1016.60 1016.93 1017.24 1017.54 1017.82 1018.09 1018.32 1018.52 1018.66 1018.74 1018.77 1018.75 1018.69 1018.63 1018.57 1018.53 1018.51 1018.53 1018.57 1018.61 1018.65 1018.66 1018.63 1018.56 1018.45 1018.31 1018.17 1018.05 1017.98 1017.97 1018.03 1018.18 1018.38 1018.62 1018.88 1019.12 1019.33 1019.47 1019.56 1019.58
1015.70 1016.19 1016.65 1017.08 1017.48 1017.87 1018.24 1018.59 1018.90 1019.17 1019.39 1019.54 1019.62 1019.65 1019.62 1019.55 1019.46 1019.37 1019.28 1019.22 1019.19 1019.17 1019.17 1019.17 1019.15 1019.12 1019.06 1018.97 1018.88 1018.79 1018.72 1018.68 1018.71 1018.78 1018.92 1019.09 1019.30 1019.50 1019.69 1019.84 1019.94 1020.00 1020.00
1016.04 1016.60 1017.14 1017.66 1018.16 1018.64 1019.08 1019.49 1019.84 1020.14 1020.37 1020.53 1020.61 1020.62 1020.57 1020.48 1020.35 1020.21 1020.08 1019.96 1019.86 1019.79 1019.73 1019.67 1019.62 1019.57 1019.50 1019.43 1019.36 1019.30 1019.26 1019.25 1019.29 1019.37 1019.48 1019.62 1019.78 1019.94 1020.08 1020.19 1020.26 1020.30 1020.31
1016.47 1017.09 1017.71 1018.32 1018.90 1019.45 1019.96 1020.42 1020.81 1021.13 1021.38 1021.53 1021.60 1021.60 1021.53 1021.40 1021.25 1021.07 1020.89 1020.72 1020.58 1020.44 1020.33 1020.24 1020.15 1020.07 1019.99 1019.92 1019.86 1019.81 1019.78 1019.77 1019.80 1019.85 1019.92 1020.02 1020.12 1020.22 1020.31 1020.39 1020.44 1020.47 1020.49
1016.97 1017.64 1018.32 1018.99 1019.64 1020.25 1020.80 1021.29 1021.70 1022.04 1022.28 1022.43 1022.49 1022.48 1022.39 1022.26 1022.08 1021.89 1021.69 1021.50 1021.32 1021.16 1021.01 1020.89 1020.78 1020.69 1020.60 1020.53 1020.46 1020.41 1020.36 1020.33 1020.32 1020.32 1020.34 1020.37 1020.40 1020.43 1020.46 1020.49 1020.51 1020.54 1020.56
1017.53 1018.23 1018.93 1019.64 1020.31 1020.94 1021.52 1022.02 1022.43 1022.76 1023.00 1023.15 1023.21 1023.19 1023.11 1022.98 1022.82 1022.63 1022.44 1022.25 1022.07 1021.91 1021.77 1021.65 1021.54 1021.45 1021.37 1021.29 1021.21 1021.14 1021.07 1021.01 1020.94 1020.87 1020.81 1020.74 1020.69 1020.63 1020.59 1020.56 1020.55 1020.55 1020.57
1018.13 1018.82 1019.52 1020.21 1020.88 1021.51 1022.07 1022.56 1022.96 1023.28 1023.51 1023.65 1023.72 1023.72 1023.66 1023.56 1023.42 1023.27 1023.11 1022.96 1022.81 1022.69 1022.58 1022.48 1022.40 1022.33 1022.27 1022.20 1022.12 1022.03 1021.93 1021.81 1021.68 1021.53 1021.38 1021.21 1021.06 1020.91 1020.78 1020.68 1020.61 1020.57 1020.58
1018.73 1019.38 1020.04 1020.70 1021.33 1021.92 1022.45 1022.91 1023.29 1023.59 1023.81 1023.97 1024.05 1024.07 1024.05 1023.99 1023.90 1023.80 1023.70 1023.60 1023.52 1023.45 1023.39 1023.35 1023.32 1023.29 1023.25 1023.20 1023.13 1023.03 1022.90 1022.73 1022.54 1022.31 1022.06 1021.80 1021.53 1021.29 1021.06 1020.88 1020.74 1020.65 1020.62
1019.29 1019.88 1020.48 1021.08 1021.65 1022.19 1022.67 1023.09 1023.45 1023.74 1023.97 1024.13 1024.24 1024.30 1024.32 1024.31 1024.28 1024.25 1024.21 1024.18 1024.17 1024.16 1024.17 1024.20 1024.22 1024.24 1024.24 1024.22 1024.16 1024.06 1023.91 1023.71 1023.45 1023.16 1022.82 1022.47 1022.11 1021.77 1021.45 1021.18 1020.97 1020.82 1020.72
1019.77 1020.29 1020.82 1021.35 1021.86 1022.34 1022.78 1023.17 1023.51 1023.79 1024.03 1024.21 1024.35 1024.45 1024.52 1024.57 1024.60 1024.63 1024.66 1024.69 1024.74 1024.80 1024.87 1024.95 1025.03 1025.10 1025.15 1025.16 1025.13 1025.04 1024.88 1024.65 1024.36 1024.01 1023.61 1023.19 1022.75 1022.33 1021.93 1021.58 1021.29 1021.06 1020.90
1020.15 1020.59 1021.05 1021.51 1021.97 1022.40 1022.81 1023.18 1023.51 1023.81 1024.06 1024.28 1024.46 1024.60 1024.72 1024.81 1024.89 1024.97 1025.04 1025.12 1025.22 1025.32 1025.44 1025.57 1025.70 1025.81 1025.90 1025.95 1025.94 1025.86 1025.71 1025.47 1025.16 1024.79 1024.35 1023.88 1023.39 1022.91 1022.45 1022.04 1021.68 1021.39 1021.16
1020.41 1020.79 1021.19 1021.60 1022.01 1022.41 1022.80 1023.17 1023.52 1023.84 1024.12 1024.37 1024.59 1024.78 1024.93 1025.06 1025.17 1025.27 1025.37 1025.48 1025.60 1025.73 1025.87 1026.03 1026.18 1026.33 1026.44 1026.52 1026.53 1026.48 1026.34 1026.12 1025.82 1025.43 1024.99 1024.50 1023.99 1023.48 1022.98 1022.52 1022.11 1021.77 1021.48
1020.57 1020.90 1021.26 1021.64 1022.02 1022.42 1022.81 1023.19 1023.56 1023.90 1024.22 1024.51 1024.76 1024.98 1025.16 1025.31 1025.44 1025.55 1025.66 1025.76 1025.88 1026.02 1026.16 1026.33 1026.49 1026.65 1026.78 1026.88 1026.91 1026.88 1026.77 1026.57 1026.29 1025.93 1025.49 1025.01 1024.50 1023.99 1023.48 1023.00 1022.56 1022.17 1021.84
1020.67 1020.97 1021.30 1021.66 1022.04 1022.44 1022.84 1023.24 1023.64 1024.02 1024.37 1024.69 1024.97 1025.21 1025.40 1025.56 1025.69 1025.80 1025.89 1025.98 1026.08 1026.20 1026.34 1026.49 1026.65 1026.81 1026.95 1027.05 1027.11 1027.10 1027.02 1026.85 1026.60 1026.26 1025.87 1025.41 1024.92 1024.42 1023.92 1023.44 1022.99 1022.58 1022.22
Thickness
5764 5762 5760 5758 5756 5755 5753 5751 5749 5748 5748 5748 5748 5747 5746 5744 5743 5741 5740 5740 5738 5738 5737 5736 5735 5734 5734 5734 5733 5732 5730 5727 5723 5725 5727 5727 5724 5722 5721 5720 5719 5717 5716
5763 5760 5757 5755 5754 5752 5750 5748 5747 5746 5745 5744 5744 5744 5743 5741 5740 5738 5737 5736 5735 5734 5733 5732 5731 5731 5729 5729 5728 5727 5726 5724 5720 5717 5718 5718 5716 5715 5713 5711 5711 5710 5708
5760 5756 5753 5752 5750 5748 5746 5745 5744 5743 5742 5741 5740 5739 5738 5737 5736 5735 5734 5733 5731 5730 5729 5727 5726 5725 5723 5723 5722 5721 5720 5720 5717 5714 5712 5711 5709 5708 5706 5704 5702 5699 5699
5757 5753 5750 5748 5746 5744 5743 5742 5740 5740 5738 5737 5736 5735 5733 5733 5731 5730 5729 5727 5726 5724 5723 5721 5720 5719 5718 5717 5716 5715 5714 5712 5710 5707 5705 5703 5701 5700 5697 5694 5692 5690 5688
5753 5749 5746 5744 5742 5740 5739 5737 5737 5736 5735 5733 5731 5730 5729 5727 5726 5724 5723 5722 5720 5718 5716 5715 5713 5711 5710 5709 5709 5708 5706 5704 5702 5699 5697 5695 5692 5689 5687 5685 5682 5680 5678
5748 5745 5743 5740 5737 5735 5734 5732 5731 5730 5729 5728 5726 5724 5722 5720 5717 5715 5715 5715 5713 5711 5709 5708 5706 5704 5702 5699 5698 5696 5695 5694 5693 5690 5687 5684 5681 5679 5677 5676 5673 5670 5668
5743 5740 5738 5736 5733 5731 5729 5726 5725 5723 5722 5720 5719 5717 5714 5711 5709 5708 5707 5708 5706 5703 5701 5700 5700 5697 5695 5693 5690 5687 5684 5682 5681 5680 5678 5674 5672 5670 5667 5666 5662 5660 5657
5738 5735 5733 5731 5728 5725 5723 5721 5719 5717 5715 5712 5710 5709 5706 5703 5701 5701 5701 5701 5698 5695 5693 5691 5689 5687 5686 5685 5682 5678 5675 5672 5671 5669 5666 5663 5661 5659 5658 5655 5652 5650 5648
5733 5730 5728 5726 5722 5720 5717 5715 5713 5711 5708 5705 5703 5701 5699 5695 5693 5693 5694 5694 5690 5687 5684 5680 5679 5676 5672 5673 5673 5669 5665 5661 5657 5655 5652 5650 5648 5646 5645 5646 5644 5642 5639
5727 5725 5723 5720 5717 5714 5711 5708 5706 5704 5701 5698 5694 5692 5690 5687 5684 5685 5685 5687 5682 5679 5674 5670 5665 5663 5661 5660 5661 5658 5654 5651 5649 5647 5643 5641 5639 5636 5633 5632 5632 5631 5629
5722 5719 5716 5714 5711 5708 5704 5702 5700 5697 5693 5690 5687 5684 5681 5678 5676 5675 5674 5677 5674 5670 5666 5661 5654 5650 5649 5647 5647 5644 5640 5639 5639 5637 5634 5632 5629 5626 5623 5620 5618 5617 5615
5715 5712 5709 5707 5705 5702 5698 5695 5692 5689 5685 5682 5679 5676 5673 5669 5665 5663 5662 5661 5661 5659 5655 5650 5642 5638 5636 5635 5634 5630 5629 5629 5630 5627 5624 5620 5617 5614 5611 5607 5604 5601 5599
5708 5704 5701 5699 5697 5694 5691 5688 5686 5683 5681 5678 5674 5670 5666 5661 5656 5653 5651 5649 5647 5646 5640 5634 5630 5628 5627 5625 5621 5619 5620 5620 5618 5615 5611 5608 5604 5600 5598 5596 5593 5590 5588
5700 5697 5694 5691 5688 5685 5683 5681 5679 5677 5674 5671 5667 5663 5659 5654 5650 5646 5644 5640 5637 5635 5631 5624 5622 5619 5618 5614 5612 5611 5609 5607 5605 5602 5599 5596 5593 5591 5589 5587 5585 5583 5581
5693 5690 5687 5683 5679 5674 5669 5664 5664 5658 5658 5659 5657 5653 5649 5644 5635 5632 5635 5632 5630 5626 5623 5620 5617 5614 5610 5607 5604 5600 5598 5596 5593 5590 5587 5584 5582 5580 5577 5575 5572 5572 5570
5685 5682 5679 5676 5671 5666 5660 5653 5644 5644 5642 5641 5640 5639 5633 5628 5624 5621 5620 5618 5615 5613 5614 5612 5607 5604 5600 5596 5593 5590 5586 5583 5580 5578 5575 5572 5570 5567 5565 5563 5561 5559 5557
5679 5675 5672 5668 5664 5660 5656 5651 5643 5634 5630 5628 5626 5623 5620 5616 5613 5610 5609 5606 5604 5604 5604 5600 5596 5593 5589 5586 5583 5579 5575 5571 5567 5565 5563 5560 5557 5555 5553 5550 5548 5546 5544
5670 5665 5663 5660 5657 5653 5649 5645 5641 5636 5630 5622 5614 5610 5607 5605 5602 5600 5599 5598 5597 5595 5594 5590 5585 5581 5578 5575 5572 5568 5564 5560 5556 5554 5550 5547 5545 5543 5540 5538 5535 5531 5530
5663 5659 5655 5652 5649 5645 5642 5638 5633 5628 5624 5618 5612 5603 5597 5594 5592 5590 5590 5593 5590 5586 5583 5579 5575 5571 5568 5563 5560 5556 5553 5549 5545 5543 5539 5535 5533 5531 5528 5526 5523 5517 5516
5652 5647 5645 5644 5641 5636 5633 5629 5625 5620 5616 5611 5606 5600 5594 5592 5590 5585 5583 5582 5580 5576 5572 5568 5564 5560 5556 5553 5549 5546 5543 5539 5535 5532 5529 5525 5522 5519 5517 5514 5513 5511 5509
5644 5638 5635 5635 5632 5628 5624 5620 5615 5611 5607 5601 5596 5588 5583 5586 5583 5578 5575 5571 5568 5565 5561 5557 5553 5550 5546 5542 5539 5536 5532 5528 5524 5520 5517 5514 5511 5509 5506 5504 5502 5500 5499
5637 5633 5630 5627 5622 5618 5614 5610 5606 5602 5597 5592 5585 5580 5573 5576 5574 5570 5566 5561 5557 5553 5549 5545 5543 5539 5535 5531 5527 5524 5520 5516 5512 5508 5505 5503 5501 5499 5497 5495 5492 5491 5489
5627 5624 5620 5616 5612 5604 5604 5601 5596 5592 5587 5582 5578 5573 5569 5566 5563 5559 5555 5551 5546 5542 5538 5534 5531 5527 5522 5518 5514 5511 5507 5503 5499 5496 5494 5493 5491 5490 5488 5486 5483 5482 5480
5618 5615 5611 5607 5603 5600 5596 5591 5586 5582 5577 5573 5569 5565 5561 5556 5553 5548 5544 5540 5536 5532 5527 5523 5519 5515 5510 5507 5504 5500 5495 5490 5486 5486 5483 5483 5483 5482 5480 5478 5476 5474 5473
5609 5606 5602 5599 5595 5591 5586 5582 5577 5573 5568 5564 5559 5555 5552 5547 5543 5538 5534 5530 5525 5521 5517 5513 5509 5505 5501 5497 5493 5489 5484 5481 5478 5476 5475 5476 5475 5473 5472 5471 5470 5468 5466
5601 5598 5594 5591 5587 5583 5578 5574 5569 5565 5560 5556 5551 5546 5543 5538 5534 5529 5525 5520 5516 5512 5508 5504 5499 5495 5491 5488 5483 5479 5476 5473 5471 5469 5468 5469 5469 5468 5466 5465 5463 5462 5460